Погода в Мелнике

Болгария     41°31′27″N   23°23′28″E
темп.,
°C
ветер,
м/с
пор.,
м/с
влажн.,
%
обл.,
%
осадки,
мм/ч
давл.,
гПа
погр.,
м
6 мая, чт
чт600:00+12з1174100 0.3 101113
03:00+11с11772 0.4 101112
06:00+10с11760 0.0 101213
09:00+15зюз01570 0.0 1013376
12:00+18зюз22470 0.0 10141058
15:00+20зюз33393 0.0 10141451
18:00+20зюз34421 0.0 10131800
21:00+14всв11650 0.0 101411
7 мая, пт
пт700:00+12всв22700 0.0 101520
03:00+11св2273100 0.0 101518
06:00+11всв227545 0.0 101421
09:00+15ююз116492 0.0 1015289
12:00+18зюз2258100 0.0 1015627
15:00+20юз335298 0.0 10131038
18:00+20юз3351100 0.0 1011965
21:00+15вюв1165100 0.0 101212
8 мая, сб
сб800:00+15вюв1167100 0.1 101211
03:00+14всв11696 0.1 101110
06:00+12св22715 0.0 101113
09:00+17з22625 0.0 1011309
12:00+18з4556100 0.0 1012864
15:00+17з34555 0.1 1014732
18:00+17з34521 0.1 1014775
21:00+11ссз117310 0.1 101716
9 мая, вс
вс900:00+9св11760 0.0 102019
03:00+8св11785 0.0 102217
06:00+6всв11787 0.0 102415
09:00+11ю116366 0.0 1025426
12:00+15юз32589 0.0 10241104
15:00+15юз326163 0.0 10241170
18:00+14юз327057 0.0 1024772
21:00+10ю118742 0.0 102514
10 мая, пн
пн1000:00+11ю008285 0.0 102525
03:00+10зюз118681 0.0 102546
06:00+7с119314 0.0 102419
09:00+12юз10771 0.0 1023393
12:00+16юз32631 0.0 1022873
15:00+18юз325914 0.0 1020977
18:00+17юз22628 0.0 1020760
21:00+12юв11810 0.0 102012